Hourly Weather Smolyanynove

Today, 24 January, Sunday

Time Temperature Precipitation Wind Pressure Humidity
00:00 0°C° 0 mm 4 mps 752 mmHg 92%
01:00 0°C° 0 mm 4 mps 752 mmHg 87%
02:00 0°C° 0 mm 4 mps 752 mmHg 88%
03:00 0°C° 0 mm 4 mps 752 mmHg 89%
04:00 0°C° 0 mm 4 mps 752 mmHg 88%
05:00 0°C° 0 mm 4 mps 752 mmHg 87%
06:00 0°C° 0 mm 3 mps 751 mmHg 86%
07:00 0°C° 0 mm 3 mps 752 mmHg 85%
08:00 0°C° 0 mm 3 mps 752 mmHg 84%
09:00 0°C° 0 mm 3 mps 752 mmHg 83%
10:00 0°C° 0 mm 3 mps 752 mmHg 83%
11:00 0°C° 0 mm 4 mps 752 mmHg 83%
12:00 0°C° 0 mm 4 mps 752 mmHg 83%
13:00 0°C° 0 mm 4 mps 751 mmHg 84%
14:00 0°C° 0 mm 4 mps 751 mmHg 84%
15:00 0°C° 0 mm 4 mps 751 mmHg 84%
16:00 -1°C° 0 mm 5 mps 751 mmHg 84%
17:00 -1°C° 0 mm 5 mps 751 mmHg 85%
18:00 -1°C° 0 mm 5 mps 751 mmHg 85%
19:00 -1°C° 0 mm 5 mps 751 mmHg 85%
20:00 -1°C° 0 mm 5 mps 750 mmHg 86%
21:00 -3°C° 0 mm 6 mps 750 mmHg 86%
22:00 -2°C° 0 mm 5 mps 750 mmHg 87%
23:00 -2°C° 0 mm 5 mps 750 mmHg 87%

Tomorrow, 25 January, Monday

Time Temperature Precipitation Wind Pressure Humidity
00:00 -2°C° 0 mm 5 mps 750 mmHg 87%
01:00 -2°C° 0 mm 5 mps 750 mmHg 88%
02:00 -2°C° 0 mm 5 mps 750 mmHg 88%
03:00 -2°C° 0 mm 5 mps 750 mmHg 89%
04:00 -2°C° 0 mm 4 mps 749 mmHg 88%
05:00 -2°C° 0 mm 4 mps 749 mmHg 88%
06:00 -2°C° 0 mm 4 mps 749 mmHg 88%
07:00 -1°C° 0 mm 4 mps 749 mmHg 88%
08:00 -1°C° 0 mm 4 mps 749 mmHg 88%
09:00 -1°C° 0 mm 4 mps 749 mmHg 88%
10:00 -1°C° 0 mm 4 mps 749 mmHg 90%
11:00 0°C° 0 mm 4 mps 749 mmHg 91%
12:00 0°C° 0 mm 4 mps 749 mmHg 92%
13:00 0°C° 0 mm 4 mps 749 mmHg 92%
14:00 +1°C° 0 mm 4 mps 749 mmHg 91%
15:00 +1°C° 0 mm 4 mps 749 mmHg 91%
16:00 0°C° 0 mm 5 mps 749 mmHg 90%
17:00 0°C° 0 mm 5 mps 748 mmHg 89%
18:00 -1°C° 0 mm 5 mps 748 mmHg 88%
19:00 -1°C° 0 mm 5 mps 748 mmHg 87%
20:00 -1°C° 0 mm 5 mps 748 mmHg 86%
21:00 -1°C° 0 mm 5 mps 748 mmHg 85%
22:00 -2°C° 0 mm 6 mps 748 mmHg 83%
23:00 -2°C° 0 mm 6 mps 747 mmHg 82%

Day after tomorrow, 26 January, Tuesday

Time Temperature Precipitation Wind Pressure Humidity
00:00 -2°C° 0 mm 6 mps 747 mmHg 81%
01:00 -2°C° 0 mm 6 mps 747 mmHg 79%
02:00 -1°C° 0 mm 7 mps 746 mmHg 76%
03:00 -1°C° 0 mm 7 mps 746 mmHg 73%
04:00 -1°C° 0.1 mm 7 mps 745 mmHg 76%
05:00 -1°C° 0.1 mm 7 mps 745 mmHg 78%
06:00 -1°C° 0.1 mm 7 mps 745 mmHg 80%
07:00 -1°C° 0 mm 7 mps 745 mmHg 81%
08:00 -1°C° 0 mm 7 mps 744 mmHg 82%
09:00 -1°C° 0 mm 6 mps 744 mmHg 82%
10:00 +1°C° 0 mm 6 mps 744 mmHg 84%
11:00 +1°C° 0 mm 6 mps 744 mmHg 86%
12:00 +2°C° 0 mm 6 mps 743 mmHg 88%
13:00 +2°C° 0.8 mm 7 mps 743 mmHg 86%
14:00 +1°C° 0.8 mm 8 mps 743 mmHg 84%
15:00 +1°C° 0.8 mm 8 mps 742 mmHg 82%
16:00 +2°C° 0.3 mm 7 mps 743 mmHg 84%
17:00 +2°C° 0.3 mm 6 mps 743 mmHg 86%
18:00 +2°C° 0.3 mm 5 mps 744 mmHg 88%
19:00 +1°C° 0 mm 5 mps 745 mmHg 86%
20:00 0°C° 0 mm 5 mps 745 mmHg 84%
21:00 0°C° 0 mm 5 mps 746 mmHg 82%
22:00 -1°C° 0 mm 5 mps 746 mmHg 81%
23:00 -1°C° 0 mm 5 mps 747 mmHg 80%

27 January, Wednesday

Time Temperature Precipitation Wind Pressure Humidity
00:00 -1°C° 0 mm 5 mps 747 mmHg 80%
01:00 -1°C° 0 mm 4 mps 747 mmHg 78%
02:00 -2°C° 0 mm 4 mps 748 mmHg 77%
03:00 -2°C° 0 mm 4 mps 748 mmHg 76%
04:00 -2°C° 0 mm 4 mps 748 mmHg 75%
05:00 -2°C° 0 mm 4 mps 748 mmHg 74%
06:00 -2°C° 0 mm 4 mps 748 mmHg 73%
07:00 -2°C° 0 mm 4 mps 748 mmHg 72%
08:00 -1°C° 0 mm 3 mps 748 mmHg 71%
09:00 0°C° 0 mm 3 mps 748 mmHg 70%
10:00 0°C° 0 mm 3 mps 748 mmHg 70%
11:00 +1°C° 0 mm 3 mps 749 mmHg 69%
12:00 +1°C° 0 mm 3 mps 749 mmHg 69%
13:00 +1°C° 0 mm 3 mps 748 mmHg 71%
14:00 +2°C° 0 mm 2 mps 748 mmHg 73%
15:00 +2°C° 0 mm 2 mps 748 mmHg 75%
16:00 +3°C° 0 mm 1 mps 748 mmHg 78%
17:00 +2°C° 0 mm 1 mps 748 mmHg 80%
18:00 +2°C° 0 mm 1 mps 747 mmHg 82%
19:00 +2°C° 0 mm 1 mps 747 mmHg 83%
20:00 +2°C° 0 mm 1 mps 747 mmHg 83%
21:00 +1°C° 0 mm 1 mps 747 mmHg 83%
22:00 +1°C° 0 mm 1 mps 747 mmHg 85%
23:00 +1°C° 0 mm 1 mps 746 mmHg 86%

28 January, Thursday

Time Temperature Precipitation Wind Pressure Humidity
00:00 -1°C° 0 mm 2 mps 746 mmHg 87%
01:00 -1°C° 0.1 mm 2 mps 745 mmHg 89%
02:00 -1°C° 0.1 mm 3 mps 745 mmHg 90%
03:00 -1°C° 0.1 mm 3 mps 744 mmHg 92%
04:00 -2°C° 0.6 mm 4 mps 744 mmHg 93%
05:00 -2°C° 0.6 mm 4 mps 744 mmHg 94%
06:00 -2°C° 0.6 mm 5 mps 743 mmHg 96%
07:00 -2°C° 0.4 mm 4 mps 743 mmHg 96%
08:00 -2°C° 0.4 mm 4 mps 743 mmHg 97%
09:00 -2°C° 0.4 mm 4 mps 743 mmHg 97%
10:00 -2°C° 0.4 mm 4 mps 743 mmHg 97%
11:00 -2°C° 0.4 mm 4 mps 743 mmHg 97%
12:00 -2°C° 0.4 mm 4 mps 743 mmHg 98%
13:00 -2°C° 0 mm 4 mps 742 mmHg 97%
14:00 -2°C° 0 mm 4 mps 742 mmHg 97%
15:00 -2°C° 0 mm 4 mps 742 mmHg 97%
16:00 -2°C° 0 mm 4 mps 742 mmHg 97%
17:00 -1°C° 0 mm 3 mps 742 mmHg 96%
18:00 -1°C° 0 mm 3 mps 742 mmHg 96%
19:00 -1°C° 0.3 mm 3 mps 742 mmHg 97%
20:00 -2°C° 0.3 mm 3 mps 742 mmHg 97%
21:00 -2°C° 0.3 mm 3 mps 742 mmHg 97%

29 January, Friday

Time Temperature Precipitation Wind Pressure Humidity
Show more